Погода в Старокутлумбетьеве

Россия / Оренбургская область     53°25′20″N   53°44′55″E
темп.,
°C
ветер,
м/с
пор.,
м/с
влажн.,
%
обл.,
%
осадки,
мм/ч
давл.,
гПа
погр.,
м
14 апреля, ср
ср1423:00+9юв510936 0.0 1035208
02:00+7юв489736 0.0 1034169
05:00+7ююв5794100 0.0 1034293
08:00+7юв3593100 0.0 1034191
11:00+9вюв458431 0.0 1033416
14:00+13юв57605 0.0 1030677
17:00+14юв67565 0.0 1029738
20:00+11юв59650 0.0 1028236
15 апреля, чт
чт1523:00+8юв49780 0.0 1028152
02:00+7юв33790 0.0 102730
05:00+6вюв33780 0.0 102621
08:00+7юв37740 0.0 1026130
11:00+13ююв58530 0.0 1024381
14:00+17ююв67400 0.0 1023902
17:00+19ю56295 0.0 10211328
20:00+15ююв334447 0.0 102025
16 апреля, пт
пт1623:00+12юв335270 0.0 102020
02:00+10юв2259100 0.0 102010
05:00+8в116125 0.0 101910
08:00+9всв115964 0.0 101910
11:00+14в234417 0.0 1019312
14:00+17всв343551 0.0 10191118
17:00+18св443351 0.0 10191669
20:00+14всв46505 0.0 101978
17 апреля, сб
сб1723:00+10св612845 0.0 1021284
02:00+7ссв510910 0.0 1021232
05:00+6св510922 0.0 1022226
08:00+5св611865 0.0 1022326
11:00+10св78671 0.0 1022590
14:00+13св77500 0.0 10221030
17:00+13св77365 0.0 10221196
20:00+10ссв610450 0.0 1023378
18 апреля, вс
вс1823:00+7ссв512530 0.0 1024346
02:00+5ссв410640 0.0 1024223
05:00+4ссв48700 0.0 1024139
08:00+4ссв49690 0.0 1024290
11:00+9ссв67502 0.0 10241027
14:00+11ссв67415 0.0 10231484
17:00+12ссв784163 0.0 10231835
20:00+7св811605 0.0 1025858